Printer-friendly version
Follow the MPC on Twitter Follow the MPC on Facebook The MPC blog
Minor Planet Center

MPEC 2000-P44 : 2000 PM8

The following Minor Planet Electronic Circular may be linked-to from your own Web pages, but must not otherwise be redistributed electronically.

A form allowing access to any MPEC is at the bottom of this page.


Read MPEC 2000-P43 Read MPEC 2000-P45


M.P.E.C. 2000-P44                                Issued 2000 Aug. 10, 14:07 UT

     The Minor Planet Electronic Circulars contain information on unusual
         minor planets and routine data on comets.  They are published
   on behalf of Commission 20 of the International Astronomical Union by the
          Minor Planet Center, Smithsonian Astrophysical Observatory,
                          Cambridge, MA 02138, U.S.A.

             Prepared using the Tamkin Foundation Computer Network

                              MPC@CFA.HARVARD.EDU
          URL http://cfa-www.harvard.edu/iau/mpc.html  ISSN 1523-6714

                                   2000 PM8

Observations:
     K00P08M*3C2000 08 02.59738 04 45 35.81 +23 01 38.4                      568
     K00P08M 3C2000 08 02.60533 04 45 38.17 +23 01 31.8                      568
     K00P08M 3C2000 08 03.54451 04 50 19.08 +22 48 34.6                      568
     K00P08M 3C2000 08 03.54896 04 50 20.42 +22 48 31.3          17.2 R      568
     K00P08M 3C2000 08 03.55345 04 50 21.75 +22 48 27.8                      568
     K00P08M 3C2000 08 03.62913 04 50 44.32 +22 47 24.3                      568
     K00P08M 3C2000 08 04.54517 04 55 18.23 +22 34 09.4                      568
     K00P08M 3C2000 08 04.55008 04 55 19.68 +22 34 05.3                      568
     K00P08M 3C2000 08 04.62960 04 55 43.39 +22 32 55.6                      568
     K00P08M 3C2000 08 04.63201 04 55 44.05 +22 32 53.6                      568
     K00P08M 3C2000 08 07.60288 05 10 31.19 +21 46 00.7                      568
     K00P08M 3C2000 08 07.61684 05 10 35.35 +21 45 46.8                      568
     K00P08M 3C2000 08 07.62168 05 10 36.78 +21 45 42.2                      568
     K00P08M  C2000 08 08.04707 05 12 43.50 +21 38 27.2          17.2        106
     K00P08M  C2000 08 08.06229 05 12 48.06 +21 38 11.9          17.5        106
     K00P08M  C2000 08 08.07793 05 12 52.66 +21 37 55.9          16.9        106
     K00P08M  C2000 08 08.08598 05 12 54.98 +21 37 47.1                      557
     K00P08M WC2000 08 08.08738 05 12 55.46 +21 37 44.9                      557
     K00P08M  C2000 08 08.35259 05 14 14.37 +21 33 23.7                      860
     K00P08M  C2000 08 08.35433 05 14 14.95 +21 33 20.9          17.3 V      860
     K00P08M  C2000 08 08.35606 05 14 15.63 +21 33 18.9          17.6 V      860
     K00P08M  C2000 08 09.10583 05 17 58.60 +21 20 03.6                      104
     K00P08M  C2000 08 09.10706 05 17 58.94 +21 20 01.8                      104
     K00P08M  C2000 08 09.10833 05 17 59.36 +21 19 59.9          17.2 V      104
     K00P08M  C2000 08 10.08921 05 22 50.85 +21 02 21.5                      557
     K00P08M  C2000 08 10.09109 05 22 51.40 +21 02 19.7                      557
     K00P08M  C2000 08 10.09296 05 22 51.94 +21 02 17.7                      557
     K00P08M  C2000 08 10.09390 05 22 52.22 +21 02 17.0          17.4 V      557
     K00P08M  C2000 08 10.09675 05 22 53.11 +21 02 14.2          16.7 R      046
     K00P08M  C2000 08 10.09747 05 22 53.26 +21 02 12.6                      046
     K00P08M  C2000 08 10.09797 05 22 53.45 +21 02 12.7                      046
     K00P08M  C2000 08 10.09866 05 22 53.66 +21 02 12.4                      046
     K00P08M  C2000 08 10.09910 05 22 53.76 +21 02 11.2                      118
     K00P08M  C2000 08 10.09925 05 22 53.84 +21 02 11.9                      046
     K00P08M  C2000 08 10.10169 05 22 54.49 +21 02 09.0          17.2 R      118
     K00P08M  C2000 08 10.10304 05 22 54.94 +21 02 07.9                      118
     K00P08M  C2000 08 10.10836 05 22 56.56 +21 02 01.3                      104
     K00P08M  C2000 08 10.10961 05 22 56.97 +21 02 00.7                      104
     K00P08M  C2000 08 10.11088 05 22 57.35 +21 02 00.1                      104
     K00P08M  C2000 08 10.11215 05 22 57.66 +21 01 57.4                      104
     K00P08M  C2000 08 10.11354 05 22 58.07 +21 01 55.6                      104
     K00P08M  C2000 08 10.11620 05 22 58.85 +21 01 52.6          17.0 V      104

Observer details:
046 Klet.  Observer Z. Moravec.  0.57-m f/5.2 reflector + CCD.
104 San Marcello Pistoiese.  Observers L. Tesi, A. Boattini, M. Tombelli.
    Measurers G. Forti, L. Tesi, A. Boattini, M. Tombelli.  0.40-m f/5
    reflector + CCD.
106 Crni Vrh.  Observer H. Mikuz.  0.36-m f/6.7 Schmidt-Cassegrain + CCD.
118 Modra.  Observers S. Gajdos, J. Toth.  0.6-m f/5.5 reflector + CCD.
557 Ondrejov.  Observer L. Sarounova.  0.65-m f/3.6 reflector + CCD.
568 Mauna Kea.  Observer C. Veillet.  3.6-m CFHT + CCD.
860 Valinhos.  Observer P. R. Holvorcem.  0.36-m f/3.6 Schmidt-Cassegrain
    + CCD.

Orbital elements:
2000 PM8
Epoch 2000 Aug. 4.0 TT = JDT 2451760.5                  Hergenrother
M 349.70641              (2000.0)            P               Q
n   0.30148033     Peri.  218.65577     +0.48911960     -0.85723836
a   2.2027408      Node   203.44749     +0.86643483     +0.49874529
e   0.5428084      Incl.   23.85894     +0.10026318     -0.12804504
P   3.27           H   14.7           G   0.15
From 42 observations 2000 Aug. 2-10.

Ephemeris:
2000 PM8                 a,e,i = 2.20, 0.54, 24                  q = 1.0071
Date    TT    R. A. (2000) Decl.     Delta      r     Elong.  Phase     V
2000 08 04    04 52.58   +22 42.1    1.227    1.093    57.4    51.5    17.2
2000 08 14    05 42.09   +19 46.4    1.205    1.052    55.8    52.8    17.2
2000 08 24    06 30.03   +15 56.8    1.203    1.023    54.2    53.3    17.1
2000 09 03    07 15.31   +11 32.6    1.219    1.008    52.8    52.8    17.1
2000 09 13    07 57.41   +06 54.7    1.251    1.010    51.8    51.5    17.1
2000 09 23    08 36.25   +02 20.4    1.293    1.027    51.2    49.6    17.2
2000 10 03    09 11.96   -01 59.0    1.341    1.058    51.2    47.5    17.3
2000 10 13    09 44.74   -05 57.4    1.389    1.101    51.9    45.4    17.4
2000 10 23    10 14.84   -09 32.6    1.434    1.155    53.1    43.6    17.5
2000 11 02    10 42.45   -12 44.6    1.471    1.216    55.1    42.0    17.6
2000 11 12    11 07.69   -15 34.2    1.500    1.283    57.8    40.7    17.7
2000 11 22    11 30.66   -18 02.9    1.517    1.354    61.2    39.7    17.8
2000 12 02    11 51.36   -20 11.7    1.523    1.427    65.3    38.9    17.9
2000 12 12    12 09.70   -22 01.0    1.516    1.501    70.2    38.1    18.0
2000 12 22    12 25.54   -23 31.3    1.496    1.576    75.8    37.2    18.1
2001 01 01    12 38.61   -24 41.8    1.466    1.651    82.2    36.2    18.1
2001 01 11    12 48.60   -25 30.7    1.427    1.725    89.5    34.8    18.1
2001 01 21    12 55.15   -25 55.7    1.380    1.798    97.6    32.9    18.1
2001 01 31    12 57.85   -25 52.7    1.331    1.870   106.7    30.3    18.0
2001 02 10    12 56.48   -25 16.3    1.283    1.940   116.9    27.0    17.9
2001 02 20    12 51.08   -24 01.6    1.243    2.009   128.0    22.8    17.8
2001 03 02    12 42.14   -22 05.1    1.217    2.077   140.1    17.8    17.6
2001 03 12    12 30.78   -19 29.0    1.211    2.142   152.5    12.4    17.5
2001 03 22    12 18.55   -16 23.7    1.231    2.206   163.8     7.2    17.4
2001 04 01    12 07.05   -13 06.1    1.281    2.268   167.9     5.3    17.5
2001 04 11    11 57.63   -09 55.9    1.361    2.328   160.0     8.4    17.8
2001 04 21    11 51.00   -07 08.1    1.468    2.386   149.0    12.5    18.2
2001 05 01    11 47.38   -04 50.7    1.599    2.443   138.0    16.0    18.5
2001 05 11    11 46.64   -03 05.9    1.748    2.497   127.7    18.7    18.9
2001 05 21    11 48.42   -01 51.6    1.913    2.550   118.0    20.5    19.2
2001 05 31    11 52.34   -01 03.9    2.087    2.601   109.1    21.6    19.4
2001 06 10    11 58.03   -00 38.8    2.268    2.651   100.6    22.1    19.7
2001 06 20    12 05.14   -00 32.1    2.453    2.698    92.7    22.1    19.9
2001 06 30    12 13.42   -00 40.3    2.638    2.744    85.1    21.7    20.0
2001 07 10    12 22.64   -01 00.4    2.820    2.788    77.8    20.9    20.2
2001 07 20    12 32.62   -01 29.9    2.998    2.831    70.7    19.8    20.3
2001 07 30    12 43.22   -02 06.8    3.170    2.872    63.9    18.5    20.4

Carl W. Hergenrother         (C) Copyright 2000 MPC           M.P.E.C. 2000-P44

Read MPEC 2000-P43 Read MPEC 2000-P45


MPEC number:

Enter an MPEC number in one of the following forms:

  • 1997-B01 (the full form)
  • J97B01 (the packed version of the full form)
  • B01 (the abbreviated form)

Valid HTML 4.01!